Location: Carrer del Canonge
(41.4901°N, 2.2931°E)
Time: 18:27:14
(UTC+00:00)

SPOT 3 Rocket - Pass Details

Date: 19 June 2021
Orbit: 779 x 794 km, 98.7° (Epoch: 01 August)

Event Time Altitude Azimuth Distance (km) Brightness Sun altitude
Exits shadow 21:40:03 - 210° (SSW) 2,541 5.9 -18.2°
Reaches altitude 10° 21:40:43 10° 214° (SW) 2,334 5.8 -18.3°
Maximum altitude 21:44:45 23° 266° (W) 1,618 5.5 -18.7°
Drops below altitude 10° 21:48:50 10° 318° (NW) 2,356 7.2 -19.0°
Sets 21:51:39 0° 333° (NNW) 3,292 8.5 -19.3°
